When you browse on this site, cookies collect data to enhance your experience and personalize the content and advertising you see.
Visit our Privacy Policy to learn more. By continuing to use the site, you agree to this use of cookies and data.
  • In Portugal
  • List of Countries
  • For 7 days
  • Water Temperature
  • Satellite Maps
  • Weather Map
  • Weather Widgets
  • user-avatar
    Login

    Hourly Weather Córdoba

    Today, 22 March, Friday

    Time Temperature Precipitation Wind Pressure Humidity
    00:00 +14°C° 0 mm 2 mps 725 mmHg 71%
    01:00 +13°C° 0 mm 2 mps 725 mmHg 72%
    02:00 +13°C° 0 mm 1 mps 725 mmHg 73%
    03:00 +13°C° 0 mm 2 mps 725 mmHg 75%
    04:00 +13°C° 0 mm 2 mps 725 mmHg 76%
    05:00 +13°C° 0 mm 2 mps 725 mmHg 78%
    06:00 +14°C° 0 mm 2 mps 725 mmHg 73%
    07:00 +16°C° 0 mm 2 mps 726 mmHg 69%
    08:00 +17°C° 0 mm 2 mps 726 mmHg 64%
    09:00 +19°C° 0 mm 2 mps 726 mmHg 58%
    10:00 +22°C° 0 mm 3 mps 727 mmHg 52%
    11:00 +25°C° 0 mm 3 mps 727 mmHg 46%
    12:00 +26°C° 0 mm 3 mps 726 mmHg 44%
    13:00 +27°C° 0 mm 3 mps 726 mmHg 42%
    14:00 +28°C° 0 mm 3 mps 725 mmHg 40%
    15:00 +28°C° 0 mm 4 mps 725 mmHg 42%
    16:00 +28°C° 0 mm 4 mps 725 mmHg 44%
    17:00 +27°C° 0 mm 4 mps 724 mmHg 45%
    18:00 +25°C° 0 mm 3 mps 724 mmHg 51%
    19:00 +22°C° 0 mm 3 mps 724 mmHg 58%
    20:00 +20°C° 0 mm 2 mps 725 mmHg 64%
    21:00 +19°C° 0 mm 2 mps 725 mmHg 66%
    22:00 +19°C° 0 mm 2 mps 725 mmHg 68%
    23:00 +18°C° 0 mm 2 mps 725 mmHg 71%

    Tomorrow, 23 March, Saturday

    Time Temperature Precipitation Wind Pressure Humidity
    00:00 +18°C° 0 mm 2 mps 725 mmHg 72%
    01:00 +17°C° 0 mm 2 mps 725 mmHg 73%
    02:00 +17°C° 0 mm 2 mps 725 mmHg 74%
    03:00 +17°C° 0 mm 2 mps 725 mmHg 74%
    04:00 +17°C° 0 mm 2 mps 724 mmHg 75%
    05:00 +17°C° 0 mm 2 mps 724 mmHg 75%
    06:00 +18°C° 0 mm 3 mps 724 mmHg 70%
    07:00 +19°C° 0 mm 3 mps 725 mmHg 66%
    08:00 +21°C° 0 mm 3 mps 725 mmHg 61%
    09:00 +23°C° 0 mm 4 mps 725 mmHg 54%
    10:00 +27°C° 0 mm 5 mps 725 mmHg 48%
    11:00 +29°C° 0 mm 5 mps 725 mmHg 41%
    12:00 +30°C° 0 mm 5 mps 725 mmHg 39%
    13:00 +32°C° 0 mm 5 mps 724 mmHg 37%
    14:00 +33°C° 0 mm 5 mps 723 mmHg 35%
    15:00 +33°C° 0 mm 5 mps 723 mmHg 37%
    16:00 +32°C° 0 mm 4 mps 723 mmHg 38%
    17:00 +32°C° 0 mm 4 mps 722 mmHg 40%
    18:00 +29°C° 0 mm 4 mps 722 mmHg 45%
    19:00 +26°C° 0 mm 3 mps 723 mmHg 51%
    20:00 +24°C° 0 mm 2 mps 723 mmHg 56%
    21:00 +23°C° 0 mm 2 mps 723 mmHg 58%
    22:00 +23°C° 0 mm 2 mps 724 mmHg 60%
    23:00 +21°C° 0 mm 2 mps 724 mmHg 62%

    Day after tomorrow, 24 March, Sunday

    Time Temperature Precipitation Wind Pressure Humidity
    00:00 +21°C° 0 mm 2 mps 724 mmHg 62%
    01:00 +21°C° 0 mm 2 mps 724 mmHg 62%
    02:00 +21°C° 0 mm 2 mps 724 mmHg 62%
    03:00 +21°C° 0 mm 3 mps 724 mmHg 62%
    04:00 +20°C° 0 mm 4 mps 724 mmHg 61%
    05:00 +20°C° 0 mm 5 mps 725 mmHg 60%
    06:00 +20°C° 0 mm 5 mps 725 mmHg 51%
    07:00 +20°C° 0 mm 5 mps 726 mmHg 43%
    08:00 +20°C° 0 mm 6 mps 726 mmHg 34%
    09:00 +21°C° 0 mm 5 mps 727 mmHg 31%
    10:00 +23°C° 0 mm 5 mps 727 mmHg 28%
    11:00 +25°C° 0 mm 4 mps 727 mmHg 25%
    12:00 +26°C° 0 mm 4 mps 727 mmHg 25%
    13:00 +27°C° 0 mm 4 mps 726 mmHg 25%
    14:00 +28°C° 0 mm 4 mps 726 mmHg 25%
    15:00 +27°C° 0 mm 3 mps 725 mmHg 27%
    16:00 +27°C° 0 mm 3 mps 725 mmHg 29%
    17:00 +26°C° 0 mm 3 mps 725 mmHg 31%
    18:00 +24°C° 0 mm 3 mps 725 mmHg 36%
    19:00 +21°C° 0 mm 2 mps 725 mmHg 41%
    20:00 +19°C° 0 mm 2 mps 725 mmHg 46%
    21:00 +18°C° 0 mm 2 mps 726 mmHg 48%
    22:00 +17°C° 0 mm 2 mps 726 mmHg 49%
    23:00 +17°C° 0 mm 2 mps 726 mmHg 50%

    25 March, Monday

    Time Temperature Precipitation Wind Pressure Humidity
    00:00 +17°C° 0 mm 2 mps 726 mmHg 50%
    01:00 +16°C° 0 mm 1 mps 726 mmHg 49%
    02:00 +16°C° 0 mm 1 mps 726 mmHg 49%
    03:00 +16°C° 0 mm 1 mps 726 mmHg 50%
    04:00 +15°C° 0 mm 1 mps 726 mmHg 50%
    05:00 +15°C° 0 mm 1 mps 726 mmHg 50%
    06:00 +15°C° 0 mm 1 mps 726 mmHg 49%
    07:00 +16°C° 0 mm 2 mps 727 mmHg 47%
    08:00 +17°C° 0 mm 2 mps 727 mmHg 45%
    09:00 +19°C° 0 mm 2 mps 727 mmHg 42%
    10:00 +20°C° 0 mm 2 mps 728 mmHg 39%
    11:00 +23°C° 0 mm 2 mps 728 mmHg 36%
    12:00 +24°C° 0 mm 3 mps 727 mmHg 35%
    13:00 +25°C° 0 mm 3 mps 727 mmHg 35%
    14:00 +26°C° 0 mm 3 mps 726 mmHg 34%
    15:00 +26°C° 0 mm 3 mps 726 mmHg 36%
    16:00 +25°C° 0 mm 3 mps 725 mmHg 38%
    17:00 +25°C° 0 mm 3 mps 725 mmHg 40%
    18:00 +23°C° 0 mm 2 mps 725 mmHg 46%
    19:00 +20°C° 0 mm 2 mps 726 mmHg 53%
    20:00 +19°C° 0 mm 1 mps 726 mmHg 59%
    21:00 +19°C° 0 mm 1 mps 727 mmHg 59%
    22:00 +18°C° 0 mm 1 mps 727 mmHg 59%
    23:00 +18°C° 0 mm 1 mps 727 mmHg 59%

    26 March, Tuesday

    Time Temperature Precipitation Wind Pressure Humidity
    00:00 +18°C° 0 mm 1 mps 727 mmHg 58%
    01:00 +18°C° 0 mm 2 mps 727 mmHg 58%
    02:00 +18°C° 0 mm 2 mps 727 mmHg 57%
    03:00 +17°C° 0 mm 2 mps 727 mmHg 60%
    04:00 +16°C° 0 mm 2 mps 728 mmHg 62%
    05:00 +16°C° 0 mm 2 mps 728 mmHg 65%
    06:00 +16°C° 0 mm 2 mps 728 mmHg 67%
    07:00 +16°C° 0 mm 1 mps 729 mmHg 68%
    08:00 +16°C° 0 mm 1 mps 729 mmHg 70%
    09:00 +16°C° 0.1 mm 1 mps 729 mmHg 71%
    10:00 +16°C° 0.1 mm 1 mps 730 mmHg 73%
    11:00 +16°C° 0.1 mm 1 mps 730 mmHg 74%
    12:00 +16°C° 0.1 mm 1 mps 730 mmHg 76%
    13:00 +16°C° 0.1 mm 1 mps 729 mmHg 78%
    14:00 +16°C° 0.1 mm 1 mps 729 mmHg 79%
    15:00 +16°C° 0 mm 1 mps 729 mmHg 79%
    16:00 +16°C° 0 mm 1 mps 729 mmHg 80%
    17:00 +16°C° 0 mm 1 mps 728 mmHg 80%
    18:00 +16°C° 0 mm 1 mps 729 mmHg 80%
    19:00 +15°C° 0 mm 1 mps 729 mmHg 80%
    20:00 +15°C° 0 mm 2 mps 729 mmHg 80%
    21:00 +15°C° 0 mm 2 mps 730 mmHg 78%
    22:00 +16°C° 0 mm 2 mps 730 mmHg 75%
    23:00 +16°C° 0 mm 2 mps 730 mmHg 73%

    27 March, Wednesday

    Time Temperature Precipitation Wind Pressure Humidity
    00:00 +16°C° 0 mm 2 mps 730 mmHg 72%
    01:00 +16°C° 0 mm 1 mps 730 mmHg 72%
    02:00 +16°C° 0 mm 1 mps 730 mmHg 71%
    03:00 +16°C° 0 mm 1 mps 729 mmHg 72%
    04:00 +15°C° 0 mm 1 mps 729 mmHg 73%
    05:00 +13°C° 0 mm 0 mps 729 mmHg 75%
    06:00 +14°C° 0 mm 0 mps 729 mmHg 73%
    07:00 +15°C° 0 mm 0 mps 729 mmHg 71%
    08:00 +15°C° 0 mm 0 mps 730 mmHg 69%
    09:00 +18°C° 0 mm 1 mps 730 mmHg 67%
    10:00 +18°C° 0 mm 1 mps 730 mmHg 66%
    11:00 +19°C° 0 mm 1 mps 730 mmHg 64%
    12:00 +20°C° 0 mm 2 mps 729 mmHg 59%
    13:00 +22°C° 0 mm 3 mps 728 mmHg 53%
    14:00 +25°C° 0 mm 4 mps 728 mmHg 48%
    15:00 +24°C° 0 mm 3 mps 727 mmHg 50%
    16:00 +24°C° 0 mm 3 mps 727 mmHg 52%
    17:00 +24°C° 0 mm 3 mps 726 mmHg 53%
    18:00 +23°C° 0 mm 2 mps 727 mmHg 58%
    19:00 +21°C° 0 mm 1 mps 727 mmHg 62%
    20:00 +20°C° 0 mm 1 mps 727 mmHg 66%
    21:00 +20°C° 0 mm 1 mps 727 mmHg 67%
    22:00 +20°C° 0 mm 1 mps 727 mmHg 68%
    23:00 +18°C° 0 mm 0 mps 728 mmHg 69%
    Show more